Year,Month,Day,Hour,Minute,Value (Times are PST for temperature in C)
2012,08,24,00,00,12.70
2012,08,24,00,01,12.70
2012,08,24,00,02,12.70
2012,08,24,00,03,12.70
2012,08,24,00,04,12.70
2012,08,24,00,05,12.70
2012,08,24,00,06,12.70
2012,08,24,00,07,12.70
2012,08,24,00,08,12.70
2012,08,24,00,09,12.70
2012,08,24,00,10,12.70
2012,08,24,00,11,12.70
2012,08,24,00,12,12.70
2012,08,24,00,13,12.70
2012,08,24,00,14,12.70
2012,08,24,00,15,12.60
2012,08,24,00,16,12.60
2012,08,24,00,17,12.60
2012,08,24,00,18,12.60
2012,08,24,00,19,12.60
2012,08,24,00,20,12.60
2012,08,24,00,21,12.50
2012,08,24,00,22,12.50
2012,08,24,00,23,12.50
2012,08,24,00,24,12.50
2012,08,24,00,25,12.40
2012,08,24,00,26,12.40
2012,08,24,00,27,12.40
2012,08,24,00,28,12.40
2012,08,24,00,29,12.40
2012,08,24,00,30,12.40
2012,08,24,00,31,12.40
2012,08,24,00,32,12.40
2012,08,24,00,33,12.30
2012,08,24,00,34,12.30
2012,08,24,00,35,12.30
2012,08,24,00,36,12.30
2012,08,24,00,37,12.30
2012,08,24,00,38,12.30
2012,08,24,00,39,12.30
2012,08,24,00,40,12.30
2012,08,24,00,41,12.40
2012,08,24,00,42,12.40
2012,08,24,00,43,12.40
2012,08,24,00,44,12.40
2012,08,24,00,45,12.40
2012,08,24,00,46,12.40
2012,08,24,00,47,12.40
2012,08,24,00,48,12.40
2012,08,24,00,49,12.40
2012,08,24,00,50,12.40
2012,08,24,00,51,12.40
2012,08,24,00,52,12.50
2012,08,24,00,53,12.50
2012,08,24,00,54,12.50
2012,08,24,00,55,12.60
2012,08,24,00,56,12.60
2012,08,24,00,57,12.60
2012,08,24,00,58,12.60
2012,08,24,00,59,12.60
2012,08,24,01,00,12.60
2012,08,24,01,01,12.60
2012,08,24,01,02,12.60
2012,08,24,01,03,12.60
2012,08,24,01,04,12.60
2012,08,24,01,05,12.60
2012,08,24,01,06,12.60
2012,08,24,01,07,12.60
2012,08,24,01,08,12.60
2012,08,24,01,09,12.50
2012,08,24,01,10,12.50
2012,08,24,01,11,12.50
2012,08,24,01,12,12.50
2012,08,24,01,13,12.50
2012,08,24,01,14,12.50
2012,08,24,01,15,12.50
2012,08,24,01,16,12.50
2012,08,24,01,17,12.50
2012,08,24,01,18,12.40
2012,08,24,01,19,12.40
2012,08,24,01,20,12.40
2012,08,24,01,21,12.40
2012,08,24,01,22,12.40
2012,08,24,01,23,12.40
2012,08,24,01,24,12.30
2012,08,24,01,25,12.30
2012,08,24,01,26,12.30
2012,08,24,01,27,12.30
2012,08,24,01,28,12.30
2012,08,24,01,29,12.30
2012,08,24,01,30,12.30
2012,08,24,01,31,12.30
2012,08,24,01,32,12.30
2012,08,24,01,33,12.20
2012,08,24,01,34,12.20
2012,08,24,01,35,12.20
2012,08,24,01,36,12.20
2012,08,24,01,37,12.10
2012,08,24,01,38,12.10
2012,08,24,01,39,12.10
2012,08,24,01,40,12.10
2012,08,24,01,41,12.10
2012,08,24,01,42,12.10
2012,08,24,01,43,12.10
2012,08,24,01,44,12.10
2012,08,24,01,45,12.00
2012,08,24,01,46,12.00
2012,08,24,01,47,12.00
2012,08,24,01,48,12.10
2012,08,24,01,49,12.10
2012,08,24,01,50,12.00
2012,08,24,01,51,12.00
2012,08,24,01,52,12.00
2012,08,24,01,53,12.00
2012,08,24,01,54,12.00
2012,08,24,01,55,12.00
2012,08,24,01,56,12.00
2012,08,24,01,57,12.00
2012,08,24,01,58,12.00
2012,08,24,01,59,11.90
2012,08,24,02,00,11.90
2012,08,24,02,01,11.90
2012,08,24,02,02,11.90
2012,08,24,02,03,11.90
2012,08,24,02,04,11.90
2012,08,24,02,05,11.90
2012,08,24,02,06,11.80
2012,08,24,02,07,11.80
2012,08,24,02,08,11.80
2012,08,24,02,09,11.80
2012,08,24,02,10,11.80
2012,08,24,02,11,11.80
2012,08,24,02,12,11.80
2012,08,24,02,13,11.80
2012,08,24,02,14,11.70
2012,08,24,02,15,11.70
2012,08,24,02,16,11.70
2012,08,24,02,17,11.70
2012,08,24,02,18,11.70
2012,08,24,02,19,11.70
2012,08,24,02,20,11.60
2012,08,24,02,21,11.60
2012,08,24,02,22,11.60
2012,08,24,02,23,11.60
2012,08,24,02,24,11.60
2012,08,24,02,25,11.50
2012,08,24,02,26,11.50
2012,08,24,02,27,11.50
2012,08,24,02,28,11.50
2012,08,24,02,29,11.40
2012,08,24,02,30,11.40
2012,08,24,02,31,11.40
2012,08,24,02,32,11.40
2012,08,24,02,33,11.40
2012,08,24,02,34,11.40
2012,08,24,02,35,11.40
2012,08,24,02,36,11.30
2012,08,24,02,37,11.30
2012,08,24,02,38,11.30
2012,08,24,02,39,11.30
2012,08,24,02,40,11.30
2012,08,24,02,41,11.30
2012,08,24,02,42,11.30
2012,08,24,02,43,11.30
2012,08,24,02,44,11.30
2012,08,24,02,45,11.30
2012,08,24,02,46,11.30
2012,08,24,02,47,11.30
2012,08,24,02,48,11.30
2012,08,24,02,49,11.30
2012,08,24,02,50,11.30
2012,08,24,02,51,11.30
2012,08,24,02,52,11.30
2012,08,24,02,53,11.30
2012,08,24,02,54,11.30
2012,08,24,02,55,11.30
2012,08,24,02,56,11.30
2012,08,24,02,57,11.30
2012,08,24,02,58,11.30
2012,08,24,02,59,11.30
2012,08,24,03,00,11.30
2012,08,24,03,01,11.30
2012,08,24,03,02,11.30
2012,08,24,03,03,11.30
2012,08,24,03,04,11.30
2012,08,24,03,05,11.30
2012,08,24,03,06,11.30
2012,08,24,03,07,11.30
2012,08,24,03,08,11.30
2012,08,24,03,09,11.30
2012,08,24,03,10,11.30
2012,08,24,03,11,11.30
2012,08,24,03,12,11.30
2012,08,24,03,13,11.30
2012,08,24,03,14,11.30
2012,08,24,03,15,11.30
2012,08,24,03,16,11.30
2012,08,24,03,17,11.30
2012,08,24,03,18,11.30
2012,08,24,03,19,11.30
2012,08,24,03,20,11.30
2012,08,24,03,21,11.30
2012,08,24,03,22,11.30
2012,08,24,03,23,11.30
2012,08,24,03,24,11.30
2012,08,24,03,25,11.30
2012,08,24,03,26,11.30
2012,08,24,03,27,11.30
2012,08,24,03,28,11.30
2012,08,24,03,29,11.30
2012,08,24,03,30,11.30
2012,08,24,03,31,11.30
2012,08,24,03,32,11.30
2012,08,24,03,33,11.30
2012,08,24,03,34,11.30
2012,08,24,03,35,11.30
2012,08,24,03,36,11.30
2012,08,24,03,37,11.20
2012,08,24,03,38,11.20
2012,08,24,03,39,11.20
2012,08,24,03,40,11.20
2012,08,24,03,41,11.20
2012,08,24,03,42,11.20
2012,08,24,03,43,11.10
2012,08,24,03,44,11.10
2012,08,24,03,45,11.10
2012,08,24,03,46,11.00
2012,08,24,03,47,11.00
2012,08,24,03,48,10.90
2012,08,24,03,49,10.90
2012,08,24,03,50,10.90
2012,08,24,03,51,10.80
2012,08,24,03,52,10.80
2012,08,24,03,53,10.80
2012,08,24,03,54,10.80
2012,08,24,03,55,10.70
2012,08,24,03,56,10.70
2012,08,24,03,57,10.70
2012,08,24,03,58,10.70
2012,08,24,03,59,10.70
2012,08,24,04,00,10.70
2012,08,24,04,01,10.70
2012,08,24,04,02,10.70
2012,08,24,04,03,10.60
2012,08,24,04,04,10.60
2012,08,24,04,05,10.60
2012,08,24,04,06,10.60
2012,08,24,04,07,10.60
2012,08,24,04,08,10.60
2012,08,24,04,09,10.60
2012,08,24,04,10,10.60
2012,08,24,04,11,10.60
2012,08,24,04,12,10.60
2012,08,24,04,13,10.60
2012,08,24,04,14,10.60
2012,08,24,04,15,10.60
2012,08,24,04,16,10.60
2012,08,24,04,17,10.60
2012,08,24,04,18,10.60
2012,08,24,04,19,10.60
2012,08,24,04,20,10.60
2012,08,24,04,21,10.50
2012,08,24,04,22,10.50
2012,08,24,04,23,10.50
2012,08,24,04,24,10.50
2012,08,24,04,25,10.50
2012,08,24,04,26,10.50
2012,08,24,04,27,10.50
2012,08,24,04,28,10.50
2012,08,24,04,29,10.50
2012,08,24,04,30,10.50
2012,08,24,04,31,10.60
2012,08,24,04,32,10.60
2012,08,24,04,33,10.60
2012,08,24,04,34,10.60
2012,08,24,04,35,10.60
2012,08,24,04,36,10.60
2012,08,24,04,37,10.60
2012,08,24,04,38,10.60
2012,08,24,04,39,10.60
2012,08,24,04,40,10.60
2012,08,24,04,41,10.60
2012,08,24,04,42,10.50
2012,08,24,04,43,10.50
2012,08,24,04,44,10.50
2012,08,24,04,45,10.50
2012,08,24,04,46,10.50
2012,08,24,04,47,10.50
2012,08,24,04,48,10.50
2012,08,24,04,49,10.50
2012,08,24,04,50,10.50
2012,08,24,04,51,10.50
2012,08,24,04,52,10.50
2012,08,24,04,53,10.50
2012,08,24,04,54,10.50
2012,08,24,04,55,10.50
2012,08,24,04,56,10.60
2012,08,24,04,57,10.60
2012,08,24,04,58,10.60
2012,08,24,04,59,10.60
2012,08,24,05,00,10.60
2012,08,24,05,01,10.60
2012,08,24,05,02,10.60
2012,08,24,05,03,10.60
2012,08,24,05,04,10.60
2012,08,24,05,05,10.60
2012,08,24,05,06,10.60
2012,08,24,05,07,10.60
2012,08,24,05,08,10.60
2012,08,24,05,09,10.60
2012,08,24,05,10,10.60
2012,08,24,05,11,10.60
2012,08,24,05,12,10.60
2012,08,24,05,13,10.60
2012,08,24,05,14,10.60
2012,08,24,05,15,10.60
2012,08,24,05,16,10.60
2012,08,24,05,17,10.60
2012,08,24,05,18,10.60
2012,08,24,05,19,10.60
2012,08,24,05,20,10.60
2012,08,24,05,21,10.60
2012,08,24,05,22,10.60
2012,08,24,05,23,10.60
2012,08,24,05,24,10.60
2012,08,24,05,25,10.60
2012,08,24,05,26,10.60
2012,08,24,05,27,10.60
2012,08,24,05,28,10.60
2012,08,24,05,29,10.50
2012,08,24,05,30,10.50
2012,08,24,05,31,10.50
2012,08,24,05,32,10.50
2012,08,24,05,33,10.50
2012,08,24,05,34,10.50
2012,08,24,05,35,10.50
2012,08,24,05,36,10.50
2012,08,24,05,37,10.50
2012,08,24,05,38,10.50
2012,08,24,05,39,10.50
2012,08,24,05,40,10.50
2012,08,24,05,41,10.50
2012,08,24,05,42,10.50
2012,08,24,05,43,10.50
2012,08,24,05,44,10.40
2012,08,24,05,45,10.40
2012,08,24,05,46,10.40
2012,08,24,05,47,10.40
2012,08,24,05,48,10.30
2012,08,24,05,49,10.30
2012,08,24,05,50,10.30
2012,08,24,05,51,10.30
2012,08,24,05,52,10.30
2012,08,24,05,53,10.20
2012,08,24,05,54,10.20
2012,08,24,05,55,10.20
2012,08,24,05,56,10.20
2012,08,24,05,57,10.20
2012,08,24,05,58,10.20
2012,08,24,05,59,10.20
2012,08,24,06,00,10.20
2012,08,24,06,01,10.20
2012,08,24,06,02,10.20
2012,08,24,06,03,10.30
2012,08,24,06,04,10.30
2012,08,24,06,05,10.30
2012,08,24,06,06,10.30
2012,08,24,06,07,10.20
2012,08,24,06,08,10.20
2012,08,24,06,09,10.20
2012,08,24,06,10,10.20
2012,08,24,06,11,10.20
2012,08,24,06,12,10.20
2012,08,24,06,13,10.20
2012,08,24,06,14,10.20
2012,08,24,06,15,10.20
2012,08,24,06,16,10.20
2012,08,24,06,17,10.20
2012,08,24,06,18,10.10
2012,08,24,06,19,10.10
2012,08,24,06,20,10.10
2012,08,24,06,21,10.10
2012,08,24,06,22,10.10
2012,08,24,06,23,10.10
2012,08,24,06,24,10.10
2012,08,24,06,25,10.10
2012,08,24,06,26,10.10
2012,08,24,06,27,10.10
2012,08,24,06,28,10.00
2012,08,24,06,29,10.00
2012,08,24,06,30,10.00
2012,08,24,06,31,9.90
2012,08,24,06,32,9.90
2012,08,24,06,33,9.90
2012,08,24,06,34,9.90
2012,08,24,06,35,9.90
2012,08,24,06,36,9.90
2012,08,24,06,37,9.80
2012,08,24,06,38,9.90
2012,08,24,06,39,9.90
2012,08,24,06,40,9.90
2012,08,24,06,41,9.90
2012,08,24,06,42,9.90
2012,08,24,06,43,9.90
2012,08,24,06,44,9.90
2012,08,24,06,45,9.90
2012,08,24,06,46,9.90
2012,08,24,06,47,9.90
2012,08,24,06,48,9.80
2012,08,24,06,49,9.80
2012,08,24,06,50,9.80
2012,08,24,06,51,9.80
2012,08,24,06,52,9.80
2012,08,24,06,53,9.80
2012,08,24,06,54,9.80
2012,08,24,06,55,9.80
2012,08,24,06,56,9.80
2012,08,24,06,57,9.80
2012,08,24,06,58,9.80
2012,08,24,06,59,9.80
2012,08,24,07,00,9.80
2012,08,24,07,01,9.80
2012,08,24,07,02,9.80
2012,08,24,07,03,9.80
2012,08,24,07,04,9.80
2012,08,24,07,05,9.80
2012,08,24,07,06,9.80
2012,08,24,07,07,9.80
2012,08,24,07,08,9.70
2012,08,24,07,09,9.70
2012,08,24,07,10,9.70
2012,08,24,07,11,9.70
2012,08,24,07,12,9.80
2012,08,24,07,13,9.80
2012,08,24,07,14,9.80
2012,08,24,07,15,9.80
2012,08,24,07,16,9.80
2012,08,24,07,17,9.80
2012,08,24,07,18,9.80
2012,08,24,07,19,9.80
2012,08,24,07,20,9.90
2012,08,24,07,21,9.90
2012,08,24,07,22,9.90
2012,08,24,07,23,9.90
2012,08,24,07,24,9.90
2012,08,24,07,25,9.90
2012,08,24,07,26,9.90
2012,08,24,07,27,9.80
2012,08,24,07,28,9.80
2012,08,24,07,29,9.80
2012,08,24,07,30,9.80
2012,08,24,07,31,9.80
2012,08,24,07,32,9.80
2012,08,24,07,33,9.80
2012,08,24,07,34,9.80
2012,08,24,07,35,9.80
2012,08,24,07,36,9.80
2012,08,24,07,37,9.80
2012,08,24,07,38,9.80
2012,08,24,07,39,9.80
2012,08,24,07,40,9.80
2012,08,24,07,41,9.80
2012,08,24,07,42,9.90
2012,08,24,07,43,9.90
2012,08,24,07,44,9.90
2012,08,24,07,45,9.90
2012,08,24,07,46,9.90
2012,08,24,07,47,9.90
2012,08,24,07,48,9.90
2012,08,24,07,49,9.90
2012,08,24,07,50,9.90
2012,08,24,07,51,9.80
2012,08,24,07,52,9.80
2012,08,24,07,53,9.80
2012,08,24,07,54,9.80
2012,08,24,07,55,9.80
2012,08,24,07,56,9.80
2012,08,24,07,57,9.70
2012,08,24,07,58,9.70
2012,08,24,07,59,9.70
2012,08,24,08,00,9.70
2012,08,24,08,01,9.70
2012,08,24,08,02,9.70
2012,08,24,08,03,9.70
2012,08,24,08,04,9.60
2012,08,24,08,05,9.60
2012,08,24,08,06,9.60
2012,08,24,08,07,9.60
2012,08,24,08,08,9.60
2012,08,24,08,09,9.60
2012,08,24,08,10,9.50
2012,08,24,08,11,9.50
2012,08,24,08,12,9.50
2012,08,24,08,13,9.50
2012,08,24,08,14,9.50
2012,08,24,08,15,9.50
2012,08,24,08,16,9.60
2012,08,24,08,17,9.50
2012,08,24,08,18,9.60
2012,08,24,08,19,9.60
2012,08,24,08,20,9.60
2012,08,24,08,21,9.60
2012,08,24,08,22,9.70
2012,08,24,08,23,9.70
2012,08,24,08,24,9.70
2012,08,24,08,25,9.70
2012,08,24,08,26,9.80
2012,08,24,08,27,9.80
2012,08,24,08,28,9.80
2012,08,24,08,29,9.80
2012,08,24,08,30,9.80
2012,08,24,08,31,9.80
2012,08,24,08,32,9.80
2012,08,24,08,33,9.80
2012,08,24,08,34,9.80
2012,08,24,08,35,9.80
2012,08,24,08,36,9.80
2012,08,24,08,37,9.80
2012,08,24,08,38,9.80
2012,08,24,08,39,9.80
2012,08,24,08,40,9.80
2012,08,24,08,41,9.80
2012,08,24,08,42,9.80
2012,08,24,08,43,9.90
2012,08,24,08,44,9.90
2012,08,24,08,45,9.90
2012,08,24,08,46,9.90
2012,08,24,08,47,9.90
2012,08,24,08,48,9.90
2012,08,24,08,49,9.90
2012,08,24,08,50,9.90
2012,08,24,08,51,9.90
2012,08,24,08,52,10.00
2012,08,24,08,53,10.00
2012,08,24,08,54,10.00
2012,08,24,08,55,10.10
2012,08,24,08,56,10.10
2012,08,24,08,57,10.10
2012,08,24,08,58,10.10
2012,08,24,08,59,10.20
2012,08,24,09,00,10.20
2012,08,24,09,01,10.20
2012,08,24,09,02,10.20
2012,08,24,09,03,10.20
2012,08,24,09,04,10.20
2012,08,24,09,05,10.20
2012,08,24,09,06,10.20
2012,08,24,09,07,10.30
2012,08,24,09,08,10.30
2012,08,24,09,09,10.30
2012,08,24,09,10,10.30
2012,08,24,09,11,10.30
2012,08,24,09,12,10.30
2012,08,24,09,13,10.30
2012,08,24,09,14,10.30
2012,08,24,09,15,10.30
2012,08,24,09,16,10.30
2012,08,24,09,17,10.30
2012,08,24,09,18,10.30
2012,08,24,09,19,10.40
2012,08,24,09,20,10.40
2012,08,24,09,21,10.40
2012,08,24,09,22,10.40
2012,08,24,09,23,10.40
2012,08,24,09,24,10.50
2012,08,24,09,25,10.50
2012,08,24,09,26,10.50
2012,08,24,09,27,10.50
2012,08,24,09,28,10.60
2012,08,24,09,29,10.60
2012,08,24,09,30,10.60
2012,08,24,09,31,10.60
2012,08,24,09,32,10.70
2012,08,24,09,33,10.70
2012,08,24,09,34,10.70
2012,08,24,09,35,10.70
2012,08,24,09,36,10.80
2012,08,24,09,37,10.80
2012,08,24,09,38,10.80
2012,08,24,09,39,10.90
2012,08,24,09,40,10.90
2012,08,24,09,41,10.90
2012,08,24,09,42,11.00
2012,08,24,09,43,11.10
2012,08,24,09,44,11.10
2012,08,24,09,45,11.20
2012,08,24,09,46,11.20
2012,08,24,09,47,11.20
2012,08,24,09,48,11.30
2012,08,24,09,49,11.30
2012,08,24,09,50,11.30
2012,08,24,09,51,11.30
2012,08,24,09,52,11.40
2012,08,24,09,53,11.50
2012,08,24,09,54,11.60
2012,08,24,09,55,11.60
2012,08,24,09,56,11.70
2012,08,24,09,57,11.70
2012,08,24,09,58,11.80
2012,08,24,09,59,11.80
2012,08,24,10,00,11.90
2012,08,24,10,01,11.90
2012,08,24,10,02,12.00
2012,08,24,10,03,12.10
2012,08,24,10,04,12.20
2012,08,24,10,05,12.30
2012,08,24,10,06,12.40
2012,08,24,10,07,12.50
2012,08,24,10,08,12.60
2012,08,24,10,09,12.60
2012,08,24,10,10,12.80
2012,08,24,10,11,12.80
2012,08,24,10,12,12.90
2012,08,24,10,13,13.00
2012,08,24,10,14,13.10
2012,08,24,10,15,13.20
2012,08,24,10,16,13.20
2012,08,24,10,17,13.30
2012,08,24,10,18,13.40
2012,08,24,10,19,13.50
2012,08,24,10,20,13.60
2012,08,24,10,21,13.60
2012,08,24,10,22,13.70
2012,08,24,10,23,13.70
2012,08,24,10,24,13.80
2012,08,24,10,25,13.80
2012,08,24,10,26,13.90
2012,08,24,10,27,13.90
2012,08,24,10,28,13.90
2012,08,24,10,29,14.00
2012,08,24,10,30,14.00
2012,08,24,10,31,14.00
2012,08,24,10,32,14.00
2012,08,24,10,33,14.10
2012,08,24,10,34,14.10
2012,08,24,10,35,14.10
2012,08,24,10,36,14.20
2012,08,24,10,37,14.20
2012,08,24,10,38,14.30
2012,08,24,10,39,14.40
2012,08,24,10,40,14.50
2012,08,24,10,41,14.60
2012,08,24,10,42,14.70
2012,08,24,10,43,14.80
2012,08,24,10,44,14.90
2012,08,24,10,45,14.90
2012,08,24,10,46,15.00
2012,08,24,10,47,15.10
2012,08,24,10,48,15.20
2012,08,24,10,49,15.30
2012,08,24,10,50,15.40
2012,08,24,10,51,15.50
2012,08,24,10,52,15.60
2012,08,24,10,53,15.70
2012,08,24,10,54,15.80
2012,08,24,10,55,15.80
2012,08,24,10,56,15.90
2012,08,24,10,57,16.00
2012,08,24,10,58,16.00
2012,08,24,10,59,16.10
2012,08,24,11,00,16.10
2012,08,24,11,01,16.20
2012,08,24,11,02,16.20
2012,08,24,11,03,16.20
2012,08,24,11,04,16.30
2012,08,24,11,05,16.30
2012,08,24,11,06,16.40
2012,08,24,11,07,16.40
2012,08,24,11,08,16.40
2012,08,24,11,09,16.50
2012,08,24,11,10,16.50
2012,08,24,11,11,16.50
2012,08,24,11,12,16.60
2012,08,24,11,13,16.60
2012,08,24,11,14,16.60
2012,08,24,11,15,16.70
2012,08,24,11,16,16.70
2012,08,24,11,17,16.70
2012,08,24,11,18,16.80
2012,08,24,11,19,16.80
2012,08,24,11,20,16.80
2012,08,24,11,21,16.90
2012,08,24,11,22,17.00
2012,08,24,11,23,17.00
2012,08,24,11,24,17.10
2012,08,24,11,25,17.10
2012,08,24,11,26,17.20
2012,08,24,11,27,17.20
2012,08,24,11,28,17.20
2012,08,24,11,29,17.30
2012,08,24,11,30,17.30
2012,08,24,11,31,17.40
2012,08,24,11,32,17.40
2012,08,24,11,33,17.50
2012,08,24,11,34,17.60
2012,08,24,11,35,17.70
2012,08,24,11,36,17.70
2012,08,24,11,37,17.60
2012,08,24,11,38,17.60
2012,08,24,11,39,17.60
2012,08,24,11,40,17.70
2012,08,24,11,41,17.70
2012,08,24,11,42,17.70
2012,08,24,11,43,17.70
2012,08,24,11,44,17.70
2012,08,24,11,45,17.80
2012,08,24,11,46,17.80
2012,08,24,11,47,17.90
2012,08,24,11,48,17.90
2012,08,24,11,49,17.90
2012,08,24,11,50,17.90
2012,08,24,11,51,17.90
2012,08,24,11,52,17.90
2012,08,24,11,53,17.90
2012,08,24,11,54,18.00
2012,08,24,11,55,17.90
2012,08,24,11,56,17.90
2012,08,24,11,57,18.00
2012,08,24,11,58,18.10
2012,08,24,11,59,18.10
2012,08,24,12,00,18.20
2012,08,24,12,01,18.30
2012,08,24,12,02,18.40
2012,08,24,12,03,18.60
2012,08,24,12,04,18.60
2012,08,24,12,05,18.70
2012,08,24,12,06,18.70
2012,08,24,12,07,18.70
2012,08,24,12,08,18.70
2012,08,24,12,09,18.80
2012,08,24,12,10,18.90
2012,08,24,12,11,18.90
2012,08,24,12,12,19.00
2012,08,24,12,13,19.00
2012,08,24,12,14,19.00
2012,08,24,12,15,19.00
2012,08,24,12,16,19.10
2012,08,24,12,17,19.10
2012,08,24,12,18,19.20
2012,08,24,12,19,19.20
2012,08,24,12,20,19.20
2012,08,24,12,21,19.20
2012,08,24,12,22,19.20
2012,08,24,12,23,19.20
2012,08,24,12,24,19.20
2012,08,24,12,25,19.20
2012,08,24,12,26,19.30
2012,08,24,12,27,19.30
2012,08,24,12,28,19.30
2012,08,24,12,29,19.40
2012,08,24,12,30,19.40
2012,08,24,12,31,19.40
2012,08,24,12,32,19.50
2012,08,24,12,33,19.50
2012,08,24,12,34,19.60
2012,08,24,12,35,19.50
2012,08,24,12,36,19.50
2012,08,24,12,37,19.60
2012,08,24,12,38,19.60
2012,08,24,12,39,19.60
2012,08,24,12,40,19.60
2012,08,24,12,41,19.70
2012,08,24,12,42,19.70
2012,08,24,12,43,19.70
2012,08,24,12,44,19.80
2012,08,24,12,45,19.80
2012,08,24,12,46,19.80
2012,08,24,12,47,19.80
2012,08,24,12,48,19.70
2012,08,24,12,49,19.70
2012,08,24,12,50,19.80
2012,08,24,12,51,19.80
2012,08,24,12,52,19.80
2012,08,24,12,53,19.80
2012,08,24,12,54,19.90
2012,08,24,12,55,19.90
2012,08,24,12,56,19.90
2012,08,24,12,57,20.00
2012,08,24,12,58,20.00
2012,08,24,12,59,20.00
2012,08,24,13,00,20.00
2012,08,24,13,01,20.00
2012,08,24,13,02,20.00
2012,08,24,13,03,20.00
2012,08,24,13,04,20.00
2012,08,24,13,05,20.00
2012,08,24,13,06,19.90
2012,08,24,13,07,19.90
2012,08,24,13,08,19.90
2012,08,24,13,09,19.90
2012,08,24,13,10,19.90
2012,08,24,13,11,19.90
2012,08,24,13,12,20.00
2012,08,24,13,13,20.00
2012,08,24,13,14,20.10
2012,08,24,13,15,20.10
2012,08,24,13,16,20.10
2012,08,24,13,17,20.10
2012,08,24,13,18,20.10
2012,08,24,13,19,20.20
2012,08,24,13,20,20.20
2012,08,24,13,21,20.10
2012,08,24,13,22,20.10
2012,08,24,13,23,20.10
2012,08,24,13,24,20.10
2012,08,24,13,25,20.20
2012,08,24,13,26,20.20
2012,08,24,13,27,20.10
2012,08,24,13,28,20.10
2012,08,24,13,29,20.00
2012,08,24,13,30,20.00
2012,08,24,13,31,20.10
2012,08,24,13,32,20.10
2012,08,24,13,33,20.20
2012,08,24,13,34,20.30
2012,08,24,13,35,20.30
2012,08,24,13,36,20.40
2012,08,24,13,37,20.40
2012,08,24,13,38,20.40
2012,08,24,13,39,20.40
2012,08,24,13,40,20.40
2012,08,24,13,41,20.40
2012,08,24,13,42,20.30
2012,08,24,13,43,20.30
2012,08,24,13,44,20.30
2012,08,24,13,45,20.30
2012,08,24,13,46,20.30
2012,08,24,13,47,20.20
2012,08,24,13,48,20.20
2012,08,24,13,49,20.20
2012,08,24,13,50,20.30
2012,08,24,13,51,20.30
2012,08,24,13,52,20.30
2012,08,24,13,53,20.30
2012,08,24,13,54,20.30
2012,08,24,13,55,20.30
2012,08,24,13,56,20.30
2012,08,24,13,57,20.30
2012,08,24,13,58,20.40
2012,08,24,13,59,20.50
2012,08,24,14,00,20.50
2012,08,24,14,01,20.50
2012,08,24,14,02,20.50
2012,08,24,14,03,20.60
2012,08,24,14,04,20.60
2012,08,24,14,05,20.60
2012,08,24,14,06,20.60
2012,08,24,14,07,20.70
2012,08,24,14,08,20.70
2012,08,24,14,09,20.60
2012,08,24,14,10,20.60
2012,08,24,14,11,20.60
2012,08,24,14,12,20.60
2012,08,24,14,13,20.60
2012,08,24,14,14,20.60
2012,08,24,14,15,20.60
2012,08,24,14,16,20.50
2012,08,24,14,17,20.50
2012,08,24,14,18,20.50
2012,08,24,14,19,20.50
2012,08,24,14,20,20.40
2012,08,24,14,21,20.40
2012,08,24,14,22,20.50
2012,08,24,14,23,20.50
2012,08,24,14,24,20.60
2012,08,24,14,25,20.60
2012,08,24,14,26,20.70
2012,08,24,14,27,20.70
2012,08,24,14,28,20.70
2012,08,24,14,29,20.70
2012,08,24,14,30,20.80
2012,08,24,14,31,20.90
2012,08,24,14,32,20.90
2012,08,24,14,33,20.90
2012,08,24,14,34,20.90
2012,08,24,14,35,21.00
2012,08,24,14,36,21.00
2012,08,24,14,37,21.00
2012,08,24,14,38,20.90
2012,08,24,14,39,20.80
2012,08,24,14,40,20.70
2012,08,24,14,41,20.60
2012,08,24,14,42,20.60
2012,08,24,14,43,20.60
2012,08,24,14,44,20.60
2012,08,24,14,45,20.70
2012,08,24,14,46,20.70
2012,08,24,14,47,20.70
2012,08,24,14,48,20.70
2012,08,24,14,49,20.60
2012,08,24,14,50,20.60
2012,08,24,14,51,20.50
2012,08,24,14,52,20.50
2012,08,24,14,53,20.50
2012,08,24,14,54,20.50
2012,08,24,14,55,20.50
2012,08,24,14,56,20.50
2012,08,24,14,57,20.50
2012,08,24,14,58,20.50
2012,08,24,14,59,20.50
2012,08,24,15,00,20.50
2012,08,24,15,01,20.50
2012,08,24,15,02,20.50
2012,08,24,15,03,20.50
2012,08,24,15,04,20.50
2012,08,24,15,05,20.50
2012,08,24,15,06,20.50
2012,08,24,15,07,20.50
2012,08,24,15,08,20.50
2012,08,24,15,09,20.50
2012,08,24,15,10,20.50
2012,08,24,15,11,20.60
2012,08,24,15,12,20.50
2012,08,24,15,13,20.50
2012,08,24,15,14,20.40
2012,08,24,15,15,20.40
2012,08,24,15,16,20.50
2012,08,24,15,17,20.50
2012,08,24,15,18,20.60
2012,08,24,15,19,20.50
2012,08,24,15,20,20.50
2012,08,24,15,21,20.40
2012,08,24,15,22,20.30
2012,08,24,15,23,20.30
2012,08,24,15,24,20.30
2012,08,24,15,25,20.20
2012,08,24,15,26,20.20
2012,08,24,15,27,20.10
2012,08,24,15,28,20.10
2012,08,24,15,29,20.00
2012,08,24,15,30,20.00
2012,08,24,15,31,20.10
2012,08,24,15,32,20.10
2012,08,24,15,33,20.10
2012,08,24,15,34,20.10
2012,08,24,15,35,20.10
2012,08,24,15,36,20.00
2012,08,24,15,37,20.00
2012,08,24,15,38,19.90
2012,08,24,15,39,19.90
2012,08,24,15,40,19.90
2012,08,24,15,41,19.90
2012,08,24,15,42,19.90
2012,08,24,15,43,19.80
2012,08,24,15,44,19.80
2012,08,24,15,45,19.80
2012,08,24,15,46,19.80
2012,08,24,15,47,19.80
2012,08,24,15,48,19.80
2012,08,24,15,49,19.80
2012,08,24,15,50,19.80
2012,08,24,15,51,19.80
2012,08,24,15,52,19.80
2012,08,24,15,53,19.80
2012,08,24,15,54,19.90
2012,08,24,15,55,19.90
2012,08,24,15,56,19.90
2012,08,24,15,57,19.80
2012,08,24,15,58,19.80
2012,08,24,15,59,19.80
2012,08,24,16,00,19.80
2012,08,24,16,01,19.80
2012,08,24,16,02,19.80
2012,08,24,16,03,19.80
2012,08,24,16,04,19.80
2012,08,24,16,05,19.80
2012,08,24,16,06,19.80
2012,08,24,16,07,19.80
2012,08,24,16,08,19.80
2012,08,24,16,09,19.70
2012,08,24,16,10,19.70
2012,08,24,16,11,19.60
2012,08,24,16,12,19.60
2012,08,24,16,13,19.70
2012,08,24,16,14,19.70
2012,08,24,16,15,19.60
2012,08,24,16,16,19.60
2012,08,24,16,17,19.60
2012,08,24,16,18,19.60
2012,08,24,16,19,19.60
2012,08,24,16,20,19.60
2012,08,24,16,21,19.60
2012,08,24,16,22,19.70
2012,08,24,16,23,19.70
2012,08,24,16,24,19.70
2012,08,24,16,25,19.70
2012,08,24,16,26,19.70
2012,08,24,16,27,19.70
2012,08,24,16,28,19.70
2012,08,24,16,29,19.70
2012,08,24,16,30,19.80
2012,08,24,16,31,19.70
2012,08,24,16,32,19.70
2012,08,24,16,33,19.60
2012,08,24,16,34,19.60
2012,08,24,16,35,19.60
2012,08,24,16,36,19.60
2012,08,24,16,37,19.60
2012,08,24,16,38,19.60
2012,08,24,16,39,19.50
2012,08,24,16,40,19.50
2012,08,24,16,41,19.50
2012,08,24,16,42,19.50
2012,08,24,16,43,19.50
2012,08,24,16,44,19.50
2012,08,24,16,45,19.50
2012,08,24,16,46,19.50
2012,08,24,16,47,19.50
2012,08,24,16,48,19.50
2012,08,24,16,49,19.60
2012,08,24,16,50,19.60
2012,08,24,16,51,19.60
2012,08,24,16,52,19.60
2012,08,24,16,53,19.50
2012,08,24,16,54,19.50
2012,08,24,16,55,19.50
2012,08,24,16,56,19.50
2012,08,24,16,57,19.50
2012,08,24,16,58,19.50
2012,08,24,16,59,19.50
2012,08,24,17,00,19.50
2012,08,24,17,01,19.50
2012,08,24,17,02,19.40
2012,08,24,17,03,19.40
2012,08,24,17,04,19.40
2012,08,24,17,05,19.40
2012,08,24,17,06,19.40
2012,08,24,17,07,19.40
2012,08,24,17,08,19.30
2012,08,24,17,09,19.40
2012,08,24,17,10,19.40
2012,08,24,17,11,19.40
2012,08,24,17,12,19.40
2012,08,24,17,13,19.30
2012,08,24,17,14,19.40
2012,08,24,17,15,19.40
2012,08,24,17,16,19.40
2012,08,24,17,17,19.40
2012,08,24,17,18,19.40
2012,08,24,17,19,19.30
2012,08,24,17,20,19.30
2012,08,24,17,21,19.30
2012,08,24,17,22,19.30
2012,08,24,17,23,19.30
2012,08,24,17,24,19.30
2012,08,24,17,25,19.20